Meteo Giornale » Osservazioni meteo Svizzera » Zurigo-Kloten

ore: 02:50 - Osservazioni Meteo Zurigo-Kloten
Lat. 47° 29' N Lon. 8° 32' E Alt. 436 metri s.l.m.

nebbia Europe/Zurich

13 °C

Banco di Nebbia

Temp. 24 Ore

10 °C

23 °C

Nord

1.8 Km/h

Dew point 12 °C

Umidità 93 %

Visibilità  0.6 Km

Il sole sorge alle ore 06:32

Il sole tramonta alle ore 20:23

Data e Ora Cielo e Fenomeni T °C DP °C Um. % Pres. hPa Vis. km Vento km/h
Oggi h: 02:50 nebbia Banco di Nebbia 13 12 93 1022 0.6 N 1.8
Oggi h: 01:50 nebbia Nebbia a Strati 13 12 93 1022 9 N 0
Oggi h: 01:20 nebbia Nebbia a Strati 13 13 100 1022 9 N 1.8
Oggi h: 00:50 nebbia Nebbia a Strati 14 13 93 1022 10 N 3.7
Oggi h: 00:20 poco_nuvoloso Poco Nuvoloso 14 13 93 1022 10 N 5.5
Ieri h: 23:50 poco_nuvoloso Poco Nuvoloso 14 13 93 1022 10 N 3.7
Ieri h: 23:20 sereno Sereno 15 14 93 1023 10 NO 7.4
Ieri h: 22:50 sereno Sereno 14 14 100 1023 10 N 5.5
Ieri h: 22:20 sereno Sereno 15 14 93 1023 10 N 1.8
Ieri h: 21:50 sereno Sereno 16 15 93 1023 10 N 3.7
Ieri h: 21:20 sereno Sereno 17 15 88 1023 10 N 5.5
Ieri h: 20:50 sereno Sereno 19 15 77 1023 10 N 5.5
Ieri h: 20:20 poco_nuvoloso Poco Nuvoloso 20 15 72 1023 10 N 5.5
Ieri h: 19:50 nuvoloso Nuvoloso 21 15 68 1023 10 E 7.4
Ieri h: 19:20 molto_nuvoloso Molto Nuvoloso 21 15 68 1023 10 N 5.5
Ieri h: 18:50 nuvoloso Nuvoloso 22 15 64 1023 10 E/SE 9.3
Ieri h: 18:20 nuvoloso Nuvoloso 23 15 60 1023 10 E/NE 7.4
Ieri h: 17:50 nuvoloso Nuvoloso 22 16 68 1023 10 N 5.5
Ieri h: 17:20 nuvoloso Nuvoloso 22 15 64 1023 10 E 9.3
Ieri h: 16:50 molto_nuvoloso Molto Nuvoloso 22 15 64 1023 10 E 11.1
Ieri h: 16:20 molto_nuvoloso Molto Nuvoloso 22 15 64 1024 10 E/NE 9.3
Ieri h: 15:50 molto_nuvoloso Molto Nuvoloso 22 15 64 1024 10 NE 7.4
Ieri h: 15:20 molto_nuvoloso Molto Nuvoloso 22 15 64 1024 10 E/NE 11.1
Ieri h: 14:50 nuvoloso Nuvoloso 20 14 68 1024 10 E 14.8
Ieri h: 14:20 molto_nuvoloso Molto Nuvoloso 20 14 68 1025 10 E 11.1
Ieri h: 13:50 molto_nuvoloso Molto Nuvoloso 20 14 68 1025 10 E 18.5
Ieri h: 13:20 molto_nuvoloso Molto Nuvoloso 19 14 72 1025 10 E/NE 9.3
Ieri h: 12:50 molto_nuvoloso Molto Nuvoloso 18 13 72 1025 10 E/NE 11.1
Ieri h: 12:20 molto_nuvoloso Molto Nuvoloso 18 13 72 1026 10 N 5.5
Ieri h: 11:50 molto_nuvoloso Molto Nuvoloso 17 13 77 1026 10 N 7.4
Ieri h: 11:20 molto_nuvoloso Molto Nuvoloso 17 13 77 1026 9 N/NE 7.4
Ieri h: 10:50 molto_nuvoloso Molto Nuvoloso 17 13 77 1026 9 N/NE 13
Ieri h: 10:20 coperto Coperto 16 13 82 1026 8 NE 13
Ieri h: 09:50 coperto Coperto 15 13 87 1026 7 N/NE 13
Ieri h: 09:20 coperto Coperto 15 13 87 1026 6 N 11.1
Ieri h: 08:50 foschia Foschia 14 13 93 1026 5 N/NE 13
Ieri h: 08:20 foschia Foschia 15 13 87 1026 5 N/NE 9.3
Ieri h: 07:50 foschia Foschia 14 13 93 1026 4 N 3.7
Ieri h: 07:20 foschia Foschia 13 12 93 1026 4 N 3.7
Ieri h: 06:50 foschia Foschia 12 12 100 1025 4 N 3.7
Ieri h: 06:20 foschia Foschia Nebbia nelle Vicinanze 12 11 93 1025 2 N 3.7
Ieri h: 05:50 foschia Foschia Nebbia a Strati 11 10 93 1025 2 O/NO 7.4
Ieri h: 05:20 foschia Foschia Banco di Nebbia 10 10 100 1025 5 N 5.5
Ieri h: 04:50 nebbia Banco di Nebbia 10 10 100 1025 5 N 5.5
Ieri h: 04:20 poco_nuvoloso Poco Nuvoloso 11 10 93 1025 6 N 5.5
Ieri h: 03:50 nebbia Nebbia a Strati 11 11 100 1025 8 O/NO 7.4